EW5035 Weather Reports


Display with metric or nautical units.
time (UTC)temp
F
wind
direction
speed
MPH
gust
MPH
rain 1hr
in
rain 24hr
in
rain mn
in
humidity
%
barometer
mb
20260903021034 60 217 5.0 11.0 0.00 0.00 0.00 72 1009.1
20260903020537 60 217 7.0 12.0 0.00 0.00 0.00 72 1009.2
20260903020055 60 216 6.0 15.0 0.00 0.00 0.00 72 1009.2
20260903015536 60 217 8.0 17.0 0.00 0.00 0.00 71 1009.2
20260903015031 60 215 12.0 25.0 0.00 0.00 0.00 68 1009.2
20260903014601 61 217 15.0 25.0 0.00 0.00 0.00 66 1009.2
20260903014034 63 224 18.0 27.0 0.00 0.00 0.00 62 1009.2
20260903013531 64 219 16.0 27.0 0.00 0.00 0.00 58 1009.0
20260903013059 64 216 21.0 26.0 0.00 0.00 0.00 55 1008.9
20260903012535 65 217 16.0 24.0 0.00 0.00 0.00 53 1008.7
20260903012040 65 229 13.0 23.0 0.00 0.00 0.00 53 1008.5
20260903011607 65 234 17.0 23.0 0.00 0.00 0.00 52 1008.5
20260903011037 66 238 13.0 26.0 0.00 0.00 0.00 51 1008.5
20260903010535 66 222 18.0 26.0 0.00 0.00 0.00 51 1008.3
20260903010059 66 224 17.0 24.0 0.00 0.00 0.00 50 1008.5
20260903005533 66 220 15.0 20.0 0.00 0.00 0.00 50 1008.2
20260903005035 66 215 13.0 25.0 0.00 0.00 0.00 51 1008.4
20260903004555 66 226 16.0 25.0 0.00 0.00 0.00 51 1008.3
20260903004031 66 219 16.0 23.0 0.00 0.00 0.00 51 1008.4
20260903003535 66 213 14.0 22.0 0.00 0.00 0.00 52 1008.3
20260903003054 66 234 15.0 24.0 0.00 0.00 0.00 53 1008.3
20260903002535 66 222 16.0 24.0 0.00 0.00 0.00 53 1008.5
20260903002035 65 218 17.0 24.0 0.00 0.00 0.00 54 1008.4
20260903001601 65 218 7.0 16.0 0.00 0.00 0.00 62 1008.5
20260903001037 64 236 11.0 15.0 0.00 0.00 0.00 61 1008.3
20260903000534 64 211 8.0 17.0 0.00 0.00 0.00 66 1008.3
20260903000050 64 223 11.0 20.0 0.00 0.00 0.00 68 1008.2
20260902235535 63 221 13.0 20.0 0.00 0.00 0.00 69 1008.3
20260902235035 63 221 14.0 35.0 0.00 0.00 0.00 70 1008.3
20260902234600 63 226 19.0 47.0 0.00 0.00 0.00 69 1008.3
20260902234034 65 224 30.0 47.0 0.00 0.00 0.00 60 1008.0
20260902233535 73 229 18.0 24.0 0.00 0.00 0.00 38 1007.5
20260902233052 73 234 13.0 19.0 0.00 0.00 0.00 37 1007.0
20260902232534 73 228 11.0 17.0 0.00 0.00 0.00 37 1006.7
20260902232034 74 229 10.0 16.0 0.00 0.00 0.00 36 1006.6
20260902231600 74 228 10.0 15.0 0.00 0.00 0.00 36 1006.5
20260902231034 74 223 8.0 14.0 0.00 0.00 0.00 35 1006.5
20260902230537 75 228 7.0 13.0 0.00 0.00 0.00 34 1006.5
20260902230104 75 242 5.0 11.0 0.00 0.00 0.00 34 1006.3
20260902225534 75 242 2.0 8.0 0.00 0.00 0.00 35 1006.5
20260902225037 75 242 2.0 10.0 0.00 0.00 0.00 35 1006.4
20260902224603 74 242 5.0 10.0 0.00 0.00 0.00 36 1006.5
20260902224034 74 240 5.0 9.0 0.00 0.00 0.00 35 1006.4
20260902223535 74 240 5.0 9.0 0.00 0.00 0.00 35 1006.4
20260902223104 74 240 0.0 8.0 0.00 0.00 0.00 36 1006.5
20260902222534 74 239 4.0 8.0 0.00 0.00 0.00 36 1006.5
20260902222035 75 240 3.0 6.0 0.00 0.00 0.00 35 1006.6
20260902221552 74 240 2.0 7.0 0.00 0.00 0.00 36 1006.5
20260902221034 73 239 3.0 8.0 0.00 0.00 0.00 37 1006.6
20260902220535 73 0 3.0 8.0 0.00 0.00 0.00 37 1006.7
20260902220059 73 239 5.0 10.0 0.00 0.00 0.00 37 1006.8
20260902215534 72 239 3.0 10.0 0.00 0.00 0.00 38 1006.8
20260902215035 72 240 4.0 12.0 0.00 0.00 0.00 37 1006.9
20260902214601 72 240 7.0 12.0 0.00 0.00 0.00 38 1007.0
20260902214035 72 236 6.0 15.0 0.00 0.00 0.00 37 1007.1
20260902213533 72 236 8.0 15.0 0.00 0.00 0.00 37 1007.2
20260902213053 73 234 9.0 15.0 0.00 0.00 0.00 36 1007.2
20260902212534 73 232 5.0 14.0 0.00 0.00 0.00 38 1007.3
20260902212034 72 232 7.0 14.0 0.00 0.00 0.00 38 1007.3
20260902211551 73 232 6.0 14.0 0.00 0.00 0.00 37 1007.3
20260902211033 73 233 9.0 14.0 0.00 0.00 0.00 36 1007.4
20260902210534 73 263 7.0 12.0 0.00 0.00 0.00 37 1007.5
20260902210059 73 271 7.0 14.0 0.00 0.00 0.00 36 1007.5
20260902205534 73 219 4.0 18.0 0.00 0.00 0.00 36 1007.5
20260902205034 73 217 9.0 18.0 0.00 0.00 0.00 36 1007.7
20260902204558 74 223 5.0 15.0 0.00 0.00 0.00 36 1007.8
20260902204034 74 155 8.0 15.0 0.00 0.00 0.00 38 1007.8
20260902203534 74 172 6.0 14.0 0.00 0.00 0.00 38 1007.8
20260902203053 73 193 3.0 14.0 0.00 0.00 0.00 39 1007.9
20260902202536 73 167 5.0 11.0 0.00 0.00 0.00 39 1007.8
20260902202034 72 171 3.0 12.0 0.00 0.00 0.00 40 1008.1
20260902201601 71 186 4.0 17.0 0.00 0.00 0.00 41 1008.3
20260902201037 71 226 12.0 17.0 0.00 0.00 0.00 41 1008.2
20260902200535 71 237 9.0 16.0 0.00 0.00 0.00 40 1008.3
20260902200049 71 240 7.0 15.0 0.00 0.00 0.00 40 1008.4
20260902195534 71 211 9.0 18.0 0.00 0.00 0.00 41 1008.5
20260902195034 71 221 10.0 19.0 0.00 0.00 0.00 39 1008.5
20260902194602 71 246 10.0 19.0 0.00 0.00 0.00 41 1008.7
20260902194034 71 240 12.0 19.0 0.00 0.00 0.00 41 1008.7
20260902193537 70 209 10.0 18.0 0.00 0.00 0.00 42 1008.7
20260902193058 70 200 11.0 22.0 0.00 0.00 0.00 42 1008.7
20260902192537 70 227 10.0 22.0 0.00 0.00 0.00 42 1008.8
20260902192035 70 229 14.0 22.0 0.00 0.00 0.00 42 1008.8
20260902191557 70 190 10.0 17.0 0.00 0.00 0.00 42 1008.8
20260902191035 69 217 8.0 17.0 0.00 0.00 0.00 43 1008.9
20260902190534 69 171 11.0 17.0 0.00 0.00 0.00 43 1009.0
20260902190049 69 219 7.0 18.0 0.00 0.00 0.00 44 1009.0
20260902185537 69 178 9.0 18.0 0.00 0.00 0.00 45 1008.9
20260902185035 68 175 11.0 18.0 0.00 0.00 0.00 47 1008.9
20260902184555 68 198 12.0 21.0 0.00 0.00 0.00 46 1008.9
20260902184034 68 193 11.0 24.0 0.00 0.00 0.00 45 1009.0
20260902183534 68 199 15.0 24.0 0.00 0.00 0.00 44 1009.1
20260902183113 68 225 13.0 21.0 0.00 0.00 0.00 45 1009.1
20260902182533 68 191 15.0 21.0 0.00 0.00 0.00 45 1009.1
20260902182034 68 225 13.0 21.0 0.00 0.00 0.00 46 1009.1
20260902181555 67 207 15.0 21.0 0.00 0.00 0.00 47 1009.0
20260902181033 67 189 13.0 22.0 0.00 0.00 0.00 46 1009.1
20260902180535 68 179 11.0 22.0 0.00 0.00 0.00 46 1009.1
20260902180055 67 190 12.0 24.0 0.00 0.00 0.00 47 1009.1
20260902175534 67 208 17.0 24.0 0.00 0.00 0.00 46 1009.2
20260902175038 67 203 15.0 22.0 0.00 0.00 0.00 47 1009.2
20260902174548 67 214 15.0 22.0 0.00 0.00 0.00 46 1009.4
20260902174037 67 192 15.0 22.0 0.00 0.00 0.00 47 1009.5
20260902173531 67 202 12.0 21.0 0.00 0.00 0.00 48 1009.4
20260902173054 67 201 14.0 21.0 0.00 0.00 0.00 48 1009.4
20260902172534 66 188 13.0 21.0 0.00 0.00 0.00 50 1009.2
20260902172034 66 207 13.0 20.0 0.00 0.00 0.00 50 1009.3
20260902171604 66 238 14.0 23.0 0.00 0.00 0.00 51 1009.3
20260902171036 66 217 14.0 23.0 0.00 0.00 0.00 51 1009.5
20260902170534 66 242 14.0 23.0 0.00 0.00 0.00 51 1009.5
20260902170054 65 223 13.0 24.0 0.00 0.00 0.00 52 1009.5
20260902165533 65 186 13.0 24.0 0.00 0.00 0.00 52 1009.3
20260902165035 65 200 12.0 22.0 0.00 0.00 0.00 53 1009.1
20260902164553 64 205 15.0 22.0 0.00 0.00 0.00 52 1009.2
20260902164036 64 197 12.0 25.0 0.00 0.00 0.00 53 1009.2
20260902163535 64 194 14.0 25.0 0.00 0.00 0.00 54 1009.2
20260902163052 63 209 14.0 24.0 0.00 0.00 0.00 54 1009.1
20260902162534 63 202 16.0 24.0 0.00 0.00 0.00 56 1009.1
20260902162036 63 204 18.0 24.0 0.00 0.00 0.00 57 1009.2
20260902161556 62 214 15.0 21.0 0.00 0.00 0.00 58 1009.1
20260902161037 62 200 14.0 23.0 0.00 0.00 0.00 59 1009.2
20260902160531 62 202 13.0 23.0 0.00 0.00 0.00 59 1009.4
20260902160112 61 191 13.0 27.0 0.00 0.00 0.00 59 1009.4
20260902155535 61 198 17.0 27.0 0.00 0.00 0.00 60 1009.3
20260902155035 61 200 16.0 25.0 0.00 0.00 0.00 60 1009.4
20260902154557 61 154 16.0 23.0 0.00 0.00 0.00 59 1009.5
20260902154034 61 198 13.0 21.0 0.00 0.00 0.00 61 1009.5
20260902153536 61 182 14.0 24.0 0.00 0.00 0.00 61 1009.6
20260902153052 60 196 11.0 24.0 0.00 0.00 0.00 62 1009.6
20260902152535 60 178 13.0 22.0 0.00 0.00 0.00 64 1009.6
20260902152034 60 191 14.0 22.0 0.00 0.00 0.00 65 1009.5
20260902151605 60 191 13.0 20.0 0.00 0.00 0.00 65 1009.4
20260902151038 60 194 13.0 22.0 0.00 0.00 0.00 65 1009.5
20260902150534 59 169 13.0 22.0 0.00 0.00 0.00 66 1009.3
20260902150053 59 168 14.0 22.0 0.00 0.00 0.00 66 1009.5
20260902145535 59 184 11.0 20.0 0.00 0.00 0.00 67 1009.5
20260902145035 59 180 12.0 21.0 0.00 0.00 0.00 68 1009.5
20260902144606 59 181 11.0 21.0 0.00 0.00 0.00 68 1009.3
20260902144034 59 178 10.0 17.0 0.00 0.00 0.00 68 1009.3
20260902143535 59 190 10.0 16.0 0.00 0.00 0.00 68 1009.3
20260902143100 59 187 9.0 17.0 0.00 0.00 0.00 68 1009.2
20260902142534 59 193 10.0 20.0 0.00 0.00 0.00 68 1009.2
20260902142035 59 165 13.0 20.0 0.00 0.00 0.00 68 1009.2
20260902141555 59 171 14.0 20.0 0.00 0.00 0.00 68 1009.2
20260902141034 59 198 13.0 20.0 0.00 0.00 0.00 68 1009.2
20260902140536 59 189 10.0 20.0 0.00 0.00 0.00 68 1009.2
20260902140052 59 163 10.0 19.0 0.00 0.00 0.00 68 1009.1
20260902135534 59 172 12.0 22.0 0.00 0.00 0.00 68 1009.2
20260902135034 59 184 14.0 22.0 0.00 0.00 0.00 68 1009.0
20260902134551 58 171 11.0 16.0 0.00 0.00 0.00 69 1008.9
20260902134035 58 178 10.0 16.0 0.00 0.00 0.00 69 1009.2
20260902133535 58 189 11.0 16.0 0.00 0.00 0.00 69 1009.0
20260902133100 58 173 10.0 19.0 0.00 0.00 0.00 69 1009.1
20260902132535 58 165 9.0 21.0 0.00 0.00 0.00 69 1009.1
20260902132034 58 173 11.0 21.0 0.00 0.00 0.00 69 1009.1
20260902131556 58 167 12.0 25.0 0.00 0.00 0.00 69 1008.9
20260902131034 58 178 14.0 25.0 0.00 0.00 0.00 69 1008.8
20260902130534 59 188 15.0 22.0 0.00 0.00 0.00 68 1008.7
20260902130053 59 189 14.0 22.0 0.00 0.00 0.00 68 1008.8
20260902125535 59 192 14.0 20.0 0.00 0.00 0.00 68 1008.8
20260902125036 59 205 13.0 23.0 0.00 0.00 0.00 67 1008.6
20260902124549 59 186 15.0 23.0 0.00 0.00 0.00 67 1008.7
20260902124034 59 195 14.0 22.0 0.00 0.00 0.00 66 1008.7
20260902123534 59 198 14.0 21.0 0.00 0.00 0.00 66 1008.6
20260902123050 59 188 14.0 25.0 0.00 0.00 0.00 66 1008.7
20260902122534 60 182 15.0 25.0 0.00 0.00 0.00 66 1008.7
20260902122035 60 188 13.0 24.0 0.00 0.00 0.00 65 1008.5
20260902121554 60 186 13.0 22.0 0.00 0.00 0.00 65 1008.6
20260902121031 60 190 15.0 22.0 0.00 0.00 0.00 65 1008.6
20260902120535 60 202 13.0 20.0 0.00 0.00 0.00 64 1008.4
20260902120052 60 215 12.0 19.0 0.00 0.00 0.00 64 1008.5
20260902115534 60 215 11.0 18.0 0.00 0.00 0.00 64 1008.7
20260902115035 60 192 11.0 21.0 0.00 0.00 0.00 64 1008.9
20260902114554 60 194 13.0 21.0 0.00 0.00 0.00 64 1008.9
20260902114035 60 195 13.0 24.0 0.00 0.00 0.00 64 1009.1
20260902113535 60 194 12.0 24.0 0.00 0.00 0.00 64 1009.2
20260902113049 60 196 17.0 24.0 0.00 0.00 0.00 63 1009.2
20260902112534 60 191 16.0 23.0 0.00 0.00 0.00 64 1009.1
20260902112031 60 188 17.0 23.0 0.00 0.00 0.00 64 1009.0
20260902111555 60 173 15.0 24.0 0.00 0.00 0.00 64 1008.9
20260902111035 60 193 15.0 24.0 0.00 0.00 0.00 63 1008.7
20260902110534 60 182 14.0 25.0 0.00 0.00 0.00 63 1008.6
20260902110101 60 165 15.0 25.0 0.00 0.00 0.00 63 1008.3
20260902105535 60 187 12.0 21.0 0.00 0.00 0.00 63 1008.5
20260902105035 60 188 13.0 23.0 0.00 0.00 0.00 63 1008.6
20260902104553 60 165 15.0 26.0 0.00 0.00 0.00 63 1008.3
20260902104035 60 180 15.0 26.0 0.00 0.00 0.00 63 1008.0
20260902103535 60 202 15.0 27.0 0.00 0.00 0.00 63 1008.0
20260902103049 60 180 16.0 27.0 0.00 0.00 0.00 63 1008.1
20260902102531 60 181 14.0 26.0 0.00 0.00 0.00 63 1008.1
20260902102035 60 178 17.0 28.0 0.00 0.00 0.00 62 1008.0
20260902101554 60 192 19.0 28.0 0.00 0.00 0.00 62 1007.9
20260902101034 60 159 15.0 27.0 0.00 0.00 0.00 62 1008.0
20260902100539 60 184 15.0 25.0 0.00 0.00 0.00 62 1008.2
20260902100052 60 186 14.0 25.0 0.00 0.00 0.00 61 1008.1
20260902095537 60 169 14.0 22.0 0.00 0.00 0.00 61 1008.2
20260902095034 60 184 14.0 21.0 0.00 0.00 0.00 61 1008.0
20260902094553 60 148 12.0 19.0 0.00 0.00 0.00 60 1008.2
20260902094035 60 186 11.0 21.0 0.00 0.00 0.00 60 1008.0
20260902093536 61 162 12.0 21.0 0.00 0.00 0.00 60 1008.1
20260902093059 61 168 13.0 21.0 0.00 0.00 0.00 60 1007.9
20260902092534 61 187 11.0 25.0 0.00 0.00 0.00 60 1007.9
20260902092039 61 195 14.0 25.0 0.00 0.00 0.00 60 1008.0
20260902091558 61 185 13.0 28.0 0.00 0.00 0.00 60 1008.2
20260902091034 61 193 13.0 30.0 0.00 0.00 0.00 60 1008.1
20260902090534 61 173 14.0 30.0 0.00 0.00 0.00 59 1008.0
20260902090052 61 195 12.0 22.0 0.00 0.00 0.00 59 1008.2
20260902085534 61 177 12.0 26.0 0.00 0.00 0.00 59 1008.2
20260902085036 61 167 14.0 26.0 0.00 0.00 0.00 59 1008.2
20260902084556 62 167 14.0 26.0 0.00 0.00 0.00 59 1008.0
20260902084035 62 164 12.0 26.0 0.00 0.00 0.00 58 1008.0
20260902083538 62 158 16.0 27.0 0.00 0.00 0.00 58 1007.9
20260902083056 62 157 18.0 27.0 0.00 0.00 0.00 57 1007.9
20260902082534 62 176 14.0 23.0 0.00 0.00 0.00 57 1007.8
20260902082031 62 178 14.0 26.0 0.00 0.00 0.00 57 1007.8
20260902081554 62 147 12.0 28.0 0.00 0.00 0.00 56 1007.9
20260902081035 62 162 13.0 28.0 0.00 0.00 0.00 56 1007.9
20260902080535 62 167 14.0 25.0 0.00 0.00 0.00 56 1007.8
20260902080108 63 173 15.0 27.0 0.00 0.00 0.00 55 1007.8
20260902075537 63 156 18.0 27.0 0.00 0.00 0.00 55 1007.9
20260902075037 63 162 15.0 28.0 0.00 0.00 0.00 55 1007.9
20260902074558 63 171 14.0 30.0 0.00 0.00 0.00 55 1007.8
20260902074035 63 171 14.0 30.0 0.00 0.00 0.00 55 1007.8
20260902073534 63 166 14.0 24.0 0.00 0.00 0.00 54 1007.8
20260902073048 63 163 14.0 22.0 0.00 0.00 0.00 54 1007.8
20260902072534 63 158 8.0 20.0 0.00 0.00 0.00 53 1007.8
20260902072037 64 156 10.0 23.0 0.00 0.00 0.00 53 1007.9
20260902071554 64 165 15.0 23.0 0.00 0.00 0.00 53 1008.0
20260902071035 64 186 13.0 23.0 0.00 0.00 0.00 52 1008.0
20260902070535 64 149 13.0 24.0 0.00 0.00 0.00 52 1007.9
20260902070054 64 154 12.0 24.0 0.00 0.00 0.00 52 1007.7
20260902065538 64 173 15.0 24.0 0.00 0.00 0.00 52 1007.7
20260902065035 64 170 13.0 22.0 0.00 0.00 0.00 52 1007.8
20260902064554 64 171 12.0 24.0 0.00 0.00 0.00 52 1007.6
20260902064034 64 187 13.0 24.0 0.00 0.00 0.00 51 1007.4
20260902063535 65 165 17.0 25.0 0.00 0.00 0.00 51 1007.4
20260902063050 65 161 14.0 25.0 0.00 0.00 0.00 51 1007.4
20260902062537 65 159 13.0 21.0 0.00 0.00 0.00 51 1007.3
20260902062033 65 169 13.0 28.0 0.00 0.00 0.00 50 1007.4
20260902061612 65 167 12.0 28.0 0.00 0.00 0.00 50 1007.5
20260902061035 65 160 13.0 19.0 0.00 0.00 0.00 50 1007.3
20260902060534 65 157 12.0 18.0 0.00 0.00 0.00 50 1007.3
20260902060053 65 155 12.0 20.0 0.00 0.00 0.00 49 1007.2
20260902055536 65 155 11.0 20.0 0.00 0.00 0.00 49 1007.3
20260902055035 65 152 13.0 19.0 0.00 0.00 0.00 49 1007.3
20260902054559 66 170 12.0 17.0 0.00 0.00 0.00 49 1007.2
20260902054036 66 185 7.0 15.0 0.00 0.00 0.00 48 1007.2
20260902053536 66 185 10.0 17.0 0.00 0.00 0.00 47 1007.1
20260902053058 67 186 11.0 18.0 0.00 0.00 0.00 45 1007.0
20260902052534 67 186 11.0 19.0 0.00 0.00 0.00 44 1007.1
20260902052035 68 184 12.0 19.0 0.00 0.00 0.00 43 1007.1
20260902051600 68 188 10.0 16.0 0.00 0.00 0.00 42 1007.1
20260902051031 68 189 9.0 15.0 0.00 0.00 0.00 42 1007.0
20260902050537 69 189 8.0 15.0 0.00 0.00 0.00 41 1007.0
20260902050053 69 189 7.0 15.0 0.00 0.00 0.00 41 1006.9
20260902045534 70 189 9.0 14.0 0.00 0.00 0.00 40 1006.9
20260902045034 70 190 9.0 14.0 0.00 0.00 0.00 40 1006.8
20260902044602 70 192 8.0 15.0 0.00 0.00 0.00 40 1006.8
20260902044035 71 196 6.0 15.0 0.00 0.00 0.00 40 1006.7
20260902043534 72 196 9.0 16.0 0.00 0.00 0.00 39 1006.7
20260902043105 72 196 11.0 16.0 0.00 0.00 0.00 39 1006.7
20260902042534 72 205 6.0 12.0 0.00 0.00 0.00 38 1006.5
20260902042035 73 205 5.0 8.0 0.00 0.00 0.00 39 1006.2
20260902041556 72 205 5.0 8.0 0.00 0.00 0.00 39 1006.2
20260902041032 72 205 4.0 6.0 0.00 0.00 0.00 39 1006.2
20260902040534 72 205 4.0 6.0 0.00 0.00 0.00 39 1006.2
20260902040054 73 205 4.0 6.0 0.00 0.00 0.00 39 1006.2
20260902035538 72 205 4.0 7.0 0.00 0.00 0.00 39 1006.2
20260902035035 72 205 4.0 7.0 0.00 0.00 0.00 39 1006.3
20260902034602 72 205 3.0 7.0 0.00 0.00 0.00 39 1006.2
20260902034038 71 205 4.0 7.0 0.00 0.00 0.00 40 1006.2
20260902033534 70 205 3.0 7.0 0.00 0.00 0.00 41 1006.0
20260902033103 68 0 0.0 3.0 0.00 0.00 0.00 42 1005.9
20260902032535 69 0 1.0 3.0 0.00 0.00 0.00 42 1005.8
20260902032032 69 0 0.0 3.0 0.00 0.00 0.00 43 1005.7
20260902031601 69 0 0.0 3.0 0.00 0.00 0.00 42 1005.7
20260902031035 69 0 0.0 3.0 0.00 0.00 0.00 42 1005.6
20260902030537 69 205 0.0 4.0 0.00 0.00 0.00 41 1005.5
20260902030050 69 205 0.0 4.0 0.00 0.00 0.00 41 1005.7
20260902025535 69 205 1.0 3.0 0.00 0.00 0.00 42 1005.6
20260902025035 70 0 0.0 2.0 0.00 0.00 0.00 41 1005.6
20260902024550 71 0 0.0 2.0 0.00 0.00 0.00 39 1005.6
20260902024035 72 0 0.0 2.0 0.00 0.00 0.00 39 1005.6
20260902023534 72 0 0.0 2.0 0.00 0.00 0.00 38 1005.5
20260902023055 73 0 0.0 2.0 0.00 0.00 0.00 36 1005.3
20260902022535 75 0 0.0 5.0 0.00 0.00 0.00 36 1005.4
20260902022036 76 0 1.0 6.0 0.00 0.00 0.00 34 1005.4
20260902021602 76 205 4.0 7.0 0.00 0.00 0.00 35 1005.5